Calgary / Springba, Alberta

4:57 AM MST on February 25, 2017 (GMT -0700)
Springbank

Weather History for CYBW - August, 2013

Change the Weather History Date:

Tuesday, August 6, 2013

  Actual Average Record
Temperature  
Mean Temperature 57 °F -  
Max Temperature 71 °F 67 °F 87 °F (1997)
Min Temperature 43 °F 41 °F 37 °F (2006)
Degree Days  
Heating Degree Days 8    
Growing Degree Days 7 (Base 50)    
Moisture  
Dew Point 52 °F    
Average Humidity 77    
Maximum Humidity 100    
Minimum Humidity 56    
Precipitation  
Precipitation 0.00 in - - ()
Sea Level Pressure  
Sea Level Pressure 30.10 in    
Wind  
Wind Speed 7 mph ()    
Max Wind Speed 13 mph    
Max Gust Speed -    
Visibility 14.9 miles    
Events Rain , Thunderstorm    
Averages and records for this station are not official NWS values.
T = Trace of Precipitation, MM = Missing Value Source: Averaged Metar Reports

Daily Weather History Graph

Daily Weather History Graph

Search for Another Location

Airport or City:

Trip Planner

Search our weather history database for the weather conditions in past years. The results will help you decide how hot, cold, wet, or windy it might be!

Date:

Astronomy

Aug. 06, 2013 Rise Set
Actual Time 6:10 AM MDT 9:14 PM MDT
Civil Twilight 5:31 AM MDT 9:53 PM MDT
Nautical Twilight 4:40 AM MDT 10:43 PM MDT
Astronomical Twilight 3:35 AM MDT 11:48 PM MDT
Moon 6:13 AM MDT (8/6) 8:40 PM MDT (8/6)
Length of Visible Light 16h 21m
Length of Day
15h 03m
Waning Crescent, 0% of the Moon is Illuminated
Aug 6
Waning Crescent
Aug 6
New
Aug 14
First Quarter
Aug 20
Full
Aug 28
Last Quarter

Hourly Weather History & Observations

Time (MDT) Temp. Windchill Dew Point Humidity Pressure Visibility Wind Dir Wind Speed Gust Speed Precip Events Conditions
5:00 AM 44.6 °F 41.4 °F 44.6 °F 100% 30.05 in 15.0 mi NNW 5.8 mph - N/A   Scattered Clouds
6:00 AM 47 °F - 47 °F 100% 30.05 in 28 mi NW 9.2 mph - -   Partly Cloudy
6:00 AM 46.4 °F 42.4 °F 46.4 °F 100% 30.04 in 30.0 mi NW 8.1 mph - N/A   Mostly Cloudy
7:00 AM 48.2 °F - 46.4 °F 93% 30.06 in 30.0 mi NNW 9.2 mph - N/A   Scattered Clouds
8:00 AM 51.8 °F - 48.2 °F 88% 30.09 in 30.0 mi NNW 10.4 mph - N/A   Partly Cloudy
9:00 AM 57.2 °F - 51.8 °F 82% 30.09 in 30.0 mi NNW 10.4 mph - N/A   Partly Cloudy
10:00 AM 62.6 °F - 53.6 °F 72% 30.09 in 30.0 mi NW 8.1 mph - N/A   Partly Cloudy
11:00 AM 64.4 °F - 53.6 °F 68% 30.10 in 30.0 mi NNW 5.8 mph - N/A   Scattered Clouds
11:09 AM 66.2 °F - 55.4 °F 68% 30.10 in 30.0 mi North 8.1 mph - N/A   Scattered Clouds
12:00 PM 66 °F - 56 °F 62% 30.10 in 28 mi NNE 8.1 mph - -   Partly Cloudy
12:00 PM 66.2 °F - 55.4 °F 68% 30.10 in 30.0 mi NNE 8.1 mph - N/A   Scattered Clouds
1:00 PM 66.2 °F - 55.4 °F 68% 30.11 in 30.0 mi NE 4.6 mph - N/A   Mostly Cloudy
2:00 PM 68.0 °F - 53.6 °F 60% 30.11 in 25.0 mi ENE 9.2 mph - N/A   Mostly Cloudy
3:00 PM 69.8 °F - 53.6 °F 56% 30.10 in 20.0 mi East 8.1 mph - N/A   Mostly Cloudy
4:00 PM 68.0 °F - 51.8 °F 56% 30.09 in 15.0 mi East 10.4 mph - N/A   Mostly Cloudy
4:30 PM 64.4 °F - 51.8 °F 64% 30.09 in 15.0 mi ENE 10.4 mph - N/A Thunderstorm Thunderstorm
4:54 PM 62.6 °F - 51.8 °F 68% 30.12 in 15.0 mi ENE 8.1 mph - N/A Rain , Thunderstorm Light Thunderstorms and Rain
5:00 PM 62.6 °F - 51.8 °F 68% 30.12 in 14.0 mi ENE 9.2 mph - N/A Rain , Thunderstorm Light Thunderstorms and Rain
6:00 PM 63 °F - 52 °F 58% 30.09 in 15 mi East 11.5 mph - - Rain , Thunderstorm Thunderstorms and Rain
6:00 PM 62.6 °F - 51.8 °F 68% 30.09 in 15.0 mi East 12.7 mph - N/A Rain , Thunderstorm Light Thunderstorms and Rain
7:00 PM 60.8 °F - 53.6 °F 77% 30.13 in 8.0 mi North 4.6 mph - N/A Rain , Thunderstorm Light Thunderstorms and Rain
7:41 PM 59.0 °F - 55.4 °F 88% 30.13 in 15.0 mi East 6.9 mph - N/A Rain Light Rain Showers
8:00 PM 59.0 °F - 55.4 °F 88% 30.12 in 20.0 mi ESE 4.6 mph - N/A Rain Light Rain Showers
8:06 PM 59.0 °F - 55.4 °F 88% 30.12 in 20.0 mi East 2.3 mph - N/A   Mostly Cloudy
9:00 PM 57.2 °F - 53.6 °F 88% 30.14 in 10.0 mi NW 5.8 mph - N/A Rain Light Rain Showers
10:00 PM 53.6 °F - 53.6 °F 100% 30.13 in 12.0 mi NNW 6.9 mph - N/A Rain Light Rain Showers